Weather Roundup
Issued by NWS Chicago, IL

Home | Current Version | Previous Version | Graphics & Text | Print | Product List | Glossary Off
Versions: 1 2 3 4 5 6 7 8 9 10 11 12 13 14 15 16 17 18 19 20 21 22 23 24 25 26 27 28 29 30 31 32 33 34 35 36 37 38 39 40 41 42 43 44 45 46 47 48 49 50

000
NZUS59 KLOT 250708
HRRLOT

CHICAGO AREA WEATHER ROUNDUP
NATIONAL WEATHER SERVICE CHICAGO/ROMEOVILLE IL
200 AM CDT TUE APR 25 2017

NOTE: "FAIR" INDICATES FEW OR NO CLOUDS BELOW 12,000 FEET WITH NO
SIGNIFICANT WEATHER AND/OR OBSTRUCTIONS TO VISIBILITY.

* THESE STATIONS ARE NOT UNDER NWS QUALITY CONTROL. THEY ALSO MAY NOT
  REPORT WEATHER SUCH AS PRECIPITATION OR FOG.

ILZ005-006-012>014-019>023-250800-
NORTHEAST ILLINOIS

CITY           SKY/WX    TMP DP  RH WIND       PRES   REMARKS
OHARE          PTCLDY    56  39  53 SE10      29.73F
MIDWAY         CLEAR     60  41  49 SE10      29.74F
AURORA         CLOUDY    53  39  59 SE6       29.73S
LANSING*       CLEAR     56  43  63 SE10      29.74F
JOLIET*        CLEAR     58  42  55 SE7       29.73S
WAUKEGAN       CLOUDY    52  38  58 SE9       29.75S
DUPAGE AIRPORT CLEAR     57  41  55 SE8       29.72F
WHEELING       CLEAR     57  39  51 SE5       29.75S
KANKAKEE*      CLEAR     55  42  62 SE9       29.74F
MORRIS*        CLEAR     57  40  53 SE5       29.71F
LEWIS AIRPORT* CLEAR     56  45  64 SE13      29.73F
NORTHERLY ISL    N/A     52  45  77 E3          N/A
$$

WIZ051-052-058>065-066-070>072-250800-
SOUTHEAST WISCONSIN

CITY           SKY/WX    TMP DP  RH WIND       PRES   REMARKS
MILWAUKEE      MOCLDY    52  39  61 SE13      29.75F
KENOSHA*       PTCLDY    55  35  47 SE13      29.75F
RACINE*        PTCLDY    53  36  52 SE9       29.77F
WAUKESHA       MOCLDY    54  32  43 SE8       29.76S
WEST BEND      MOCLDY    54  32  43 SE7       29.75F
$$

INZ001>003-010>013-019-020-250800-
NORTHWEST INDIANA

CITY           SKY/WX    TMP DP  RH WIND       PRES   REMARKS
GARY*          CLEAR     59  38  45 SE9       29.75F
MICHIGAN CITY* NOT AVBL
RENSSELAER*    NOT AVBL
VALPARAISO     CLEAR     53  41  63 E7        29.77F
$$

LMZ740>746-250800-
SOUTHERN LAKE MICHIGAN

STATION/POSITION TIME  SKY/WX   TEMP WIND        PRES    VSBY
                                AIR  DIR/SP/G
                 (UTC)          (F)  (DEG/KT/KT) (MB)    (MI)
HARRISON CRIB    0630            53  150/  6/  7   N/A
BURNHAM HARBOR   0700            52   CALM  /  5   N/A
CALUMET HARBOR   0642                120/ 10/ 17 1006.7F
BURNS HARBOR     0640            59  130/ 11/ 18 1008.1S
MICHIGAN CITY    0640            58  130/ 11/ 14   N/A
$$

ABBREVIATIONS USED IN REMARKS
   TC - TEMPERATURE IN CELSIUS
  WCI - WIND CHILL INDEX
   HX - HEAT INDEX
  VSB - VISIBILITY
$$



USA.gov is the U.S. government's official web portal to all federal, state and local government web resources and services.